Погода Сурское

Погода Сурское : погода сейчас, прогноз погоды и архив. Всё, что Вы хотите узнать о погоде Сурское!

Поиск расширенной информации на нашем сайте:

Другие новости

Новости СМИ2

Главная страница сайта

Новости сайта

03.07.2017

Напоминаем, что на нашем специализированном сайте Метеоцентр.Азия вы можете получить высокодетализированные автоматические прогнозы погоды по пунктам России, СНГ и мира в авиационном формате (включающие направление и скорость ветра, видимость, явления погоды, количество и форму облачности, нижнюю и верхнюю границу облачности).

Рекомендуем: Первые признаки беременности.

Погода Сурское - сегодня

Время (UTC), дата Ветер
(°,м/с) 
Видим.   Явления Облачность Т
(°С)
Тd
(°С)
f(%) Тe
(°С)
Pmin
(гПа)
dP
(гПа)
Po
(мм)
O2
(г/м3)
Тmin Tmax R s Состояние
почвы
00 19.09.17 тихо ()   20000 м    ясно 
+10.5 +8.1 85 +11  1012.1  -0.9  750  290           
03 19.09.17 350 (С) 20000 м    3/0 верхняя 
[Ci fib]
+11.1 +8.5 84 +12  1011.4  -0.6  750  289  +9.5        сухая 
06 19.09.17 210 (ЮЗ) 20000 м    3/0 верхняя 
[Ci fib]
+20.7 +9.7 49 +21  1011.1  0.1  750  279           
09 19.09.17 240 (ЮЗ) 4-10  20000 м    10/6 600 м верхняя 
[Cu med, cong|Cs]
+22 +10.4 48 +24  1012.3  1.2  751  278           
12 19.09.17 220 (ЮЗ) 3-10  20000 м    4/0 верхняя 
[Ci fib]
+24.1 +9.2 39 +24  1012.6  0.3  751  276           
15 19.09.17 240 (ЮЗ) 1{10}  20000 м    3/0 верхняя 
[Ci fib]
+20 +7.1 43 +20  1014  1.3  752  281    +24.5       
18 19.09.17 270 (З) 20000 м    ясно 
+13.7 +5.7 58 +14  1016.9  2.5  754  288           
21 19.09.17 330 (СЗ) 20000 м    ясно 
+8.7 +6.2 84 +10  1018.9  1.8  755  294           
00 20.09.17 тихо ()   20000 м    ясно 
+4.7 +3.7 93 +5  1020.2  1.1  756  299           
03 20.09.17 310 (СЗ) 20000 м    ясно 
+2.6 +1.9 95 +3  1021.9  1.6  757  302  +2.2        сухая 
06 20.09.17 270 (З) 20000 м    3/0 верхняя 
[Ci fib]
+14 +7 63 +15  1022.7  1.3  758  289           
09 20.09.17 310 (СЗ) 20000 м    ясно 
+17.4 +5.3 45 +18  1022.7  0.1  758  286           
12 20.09.17 290 (З) 20000 м    ясно 
+18.4 +5.9 44 +19  1022.7  0.1  758  285           
15 20.09.17 340 (С) 20000 м    3/0 верхняя 
[Ci fib]
+14.4 +7.8 65 +16  1023.4  0.5  759  289    +18.6       
18 20.09.17 тихо ()   20000 м    ясно 
+6.6 +5.2 91 +7  1025.1  1.3  760  298           
21 20.09.17 тихо ()   20000 м    ясно 
+4.1 +3.2 94 +4  1025.7  0.5  760  301           
00 21.09.17 тихо ()   20000 м    ясно 
+2.4 +1.8 96 +2  1026.5  0.7  760  303           
03 21.09.17 тихо ()   4000 м  дымка  6/6 300 м 
[St]
+1.5 +1 96 +2  1027.9  1.4  761  305  +1        сухая 
06 21.09.17 110 (В) 20000 м  {туман}  4/0 верхняя 
[Ci sp]
+10.6 +7.4 81 +12  1028  0.5  762  294           
09 21.09.17 030 (СВ) 20000 м    8/5 600 м верхняя 
[Cu hum|Ci fib]
+15.9 +5.9 51 +17  1027.5  -0.3  762  289           
12 21.09.17 350 (С) 20000 м    8/0 верхняя 
[Cc]
+16.4 +6.4 52 +17  1027.2  -0.3  761  288           
15 21.09.17 030 (СВ) 20000 м    10/0 средняя 
[Ac und]
+13.3 +6.7 64 +13  1028.1  0.8  762  292    +17.1       
18 21.09.17 030 (СВ) 20000 м    10/0 средняя 
[Ac As]
+11.1 +7 76 +11  1029.7  1.5  763  294           
21 21.09.17 040 (СВ) 20000 м    10/6 600 м средняя 
[Sc|Ac As]
+9.6 +4.9 72 +9  1031.1  1.2  764  297           
00 22.09.17 020 (С) 20000 м    3/0 верхняя 
[Ci fib]
+5.5 +1.7 76 +4  1032.5  1.2  765  302           
Время (UTC), дата Ветер
(°,м/с) 
Видим.   Явления Облачность Т
(°С)
Тd
(°С)
f(%) Тe
(°С)
Pmin
(гПа)
dP
(гПа)
Po
(мм)
O2
(г/м3)
Тmin Tmax R s Состояние
почвы

Для получения пояснительной информации подведите курсор к названию столбца.

ПОГОДА Сурское - архив

Всё, что Вы хотите узнать о погоде Сурское - удобно и подробно!

Выберите нужную дату (начиная с 1 января 2015* года) и нажмите кнопку "Найти".
Будут отображены архивные сводки погоды по пункту Сурское, начиная с указанной даты.


Отображать данные в формате CSV (для использования в таблицах Excel)


Внимание! Наш архив погоды предназначен исключительно для личного некоммерческого использования в познавательных целях. Если Вам необходимы официальные справки о состоянии погоды (для производственных, юридических, коммерческих и т.п. целей), обращайтесь в органы Росгидромета.

*Примечание: данная дата относится к архиву по метеостанциям СССР (Россия, СНГ, Балтия).
Архив по метеостанциям Зарубежной Европы и Азии (кроме Китая) хранится 10 дней, по другим регионам земного шара (Китай, Африка, Америка, Австралия, Океания) - 1 день.

Сурское - район местоположения метеостанции


Название, широта, долгота, высота метеостанции:
Сурское 54.5°ш. 46.7°д. 100 м над ур. моря [Российская Федерация]

Дополнительная информация

В oтличие oт бoльшинства пoгoдных сайтoв мы публикуем пoдрoбную метеoинфoрмацию в детальнoм прoфессиoнальнoм фoрмате.

Характеристики температуры и влажнoсти вoздуха измеряются на высoте 2 м в тени вдали oт зданий и деревьев.
Скoрoсть ветра измеряется на высoте 10 м (на урoвне рoста челoвека скoрoсть ветра ниже в 1.5-2 раза). Если метеoстанция нахoдится в гoрoде или в лесу, тo скoрoсть ветра занижена на 2-4 м/с пo сравнению с oткрытым местoм. Скoрoсть ветра над акватoриями крупных рек и oзёр, а также на вершинах хoлмoв на 2-5 м/с выше, чем в oбычных услoвиях.
Атмoсфернoе давление в разных тoчках местнoсти мoжет значительнo oтличаться oт давления на метеoстанции, в зависимoсти oт услoвий рельефа (при пoдъёме на 10 м давление пoнижается примернo на 1 мм рт.ст.).